Printer-friendly version

IAU Minor Planet Center

Minor Planet Center

(22) Kalliope

Orbital Elements

The following orbital elements are taken from MPO 53552
   (22) Kalliope
Epoch 2003 Dec. 27.0 TT = JDT 2453000.5                 Goffin
M 164.13785              (2000.0)            P               Q
n   0.19879896     Peri.  356.44297     +0.45716875     -0.86250991
a   2.9075463      Node    66.24815     +0.82172853     +0.31630904
e   0.1030602      Incl.   13.71201     +0.34023368     +0.39500032
P   4.96           H    6.45          G   0.21           U   0
From 1675 observations at 90 oppositions, 1852-2003, mean residual 0".56.
An explanation of the orbital elements is available.

These orbital elements are also available in forms suitable for loading into a number of popular planetarium-type software programs.


Ephemeris

The following ephemeris is at intervals of five days. A daily ephemeris covering the same time interval is also available.

Date    TT    R. A. (2000) Decl.     Delta      r     Elong.  Phase     V
 
2004 04 05    17 28.21   -23 09.6    2.683    3.207   112.8    16.7    11.9
2004 04 10    17 28.84   -23 24.2    2.617    3.206   117.6    16.1    11.9
2004 04 15    17 28.89   -23 39.0    2.554    3.206   122.4    15.3    11.8
2004 04 20    17 28.33   -23 54.0    2.494    3.205   127.4    14.4    11.7
2004 04 25    17 27.16   -24 09.3    2.437    3.205   132.6    13.4    11.6
2004 04 30    17 25.39   -24 24.6    2.386    3.204   137.8    12.2    11.5
2004 05 05    17 23.02   -24 39.9    2.339    3.203   143.2    10.9    11.5
2004 05 10    17 20.10   -24 55.0    2.297    3.203   148.6     9.5    11.4
2004 05 15    17 16.65   -25 09.7    2.261    3.202   154.2     7.9    11.3
2004 05 20    17 12.75   -25 23.7    2.232    3.201   159.8     6.3    11.2
2004 05 25    17 08.46   -25 36.9    2.209    3.200   165.4     4.6    11.1
2004 05 30    17 03.89   -25 49.1    2.194    3.199   171.0     2.8    11.0
2004 06 04    16 59.14   -26 00.2    2.185    3.198   175.8     1.3    10.8
2004 06 09    16 54.32   -26 10.1    2.184    3.196   175.2     1.5    10.9
2004 06 14    16 49.54   -26 18.7    2.189    3.195   170.2     3.1    11.0
2004 06 19    16 44.92   -26 26.2    2.202    3.194   164.7     4.8    11.1
2004 06 24    16 40.58   -26 32.6    2.222    3.192   159.1     6.5    11.2
2004 06 29    16 36.60   -26 38.3    2.249    3.191   153.5     8.2    11.3
2004 07 04    16 33.07   -26 43.4    2.281    3.189   148.0     9.7    11.3
2004 07 09    16 30.04   -26 48.1    2.319    3.188   142.6    11.2    11.4
2004 07 14    16 27.56   -26 52.6    2.363    3.186   137.3    12.5    11.5
2004 07 19    16 25.68   -26 57.3    2.411    3.184   132.2    13.7    11.6
2004 07 24    16 24.41   -27 02.3    2.464    3.182   127.2    14.7    11.7
2004 07 29    16 23.76   -27 07.8    2.520    3.180   122.3    15.7    11.8
2004 08 03    16 23.71   -27 13.8    2.579    3.178   117.5    16.4    11.8

Back to Bright Minor Planets

Astronomical Headlines Index


Valid HTML 4.01!